Hourly Data Report for September 10, 2017

All times are specified in Local Standard Time (LST). Add 1 hour to adjust for Daylight Saving Time where and when it is observed.

HALL BEACH A
NUNAVUT

68°46'33.000" N
81°14'33.000" W
9.10 m
2402354
71293
YUX

Related Data

No related data is available for this station

Download Data

Hourly Data (September 2017)
Hourly Data Report for September 10, 2017
Temp Definition
°C
Dew Point Temp Definition
°C
Rel Hum Definition
%
Wind Dir Definition
10's deg

Wind Spd Definition
km/h
Visibility Definition
km
Stn Press Definition
kPa
Hmdx Definition


Wind Chill Definition


Weather Definition


TIME
00:00 Legend Double Dagger 0.0 -4.5 72 32 54 16.1 100.11   -8 LegendNANA
01:00 Legend Double Dagger -0.7 -4.3 77 31 58 16.1 100.26   -10 LegendNANA
02:00 Legend Double Dagger -1.0 -4.2 79 32 48 16.1 100.42   -9 LegendNANA
03:00 Legend Double Dagger -1.1 -4.6 77 31 59 16.1 100.45   -10 LegendNANA
04:00 Legend Double Dagger -1.2 -5.0 75 31 58 16.1 100.56   -10 LegendNANA
05:00 Legend Double Dagger -1.3 -4.6 79 31 39 16.1 100.72   -9 LegendNANA
06:00 Legend Double Dagger -1.2 -4.6 78 31 41 16.1 100.79   -9 LegendNANA
07:00 Legend Double Dagger -1.0 -5.2 74 31 41 16.1 100.82   -9 LegendNANA
08:00 Legend Double Dagger -0.8 -5.6 70 31 46 16.1 100.88   -9 LegendNANA
09:00 Legend Double Dagger 0.1 -5.3 67 31 48 16.1 100.93     LegendNANA
10:00 Legend Double Dagger 0.8 -5.7 62 32 48 16.1 100.95     LegendNANA
11:00 Legend Double Dagger 1.3 -4.3 66 31 48 16.1 101.02     LegendNANA
12:00 Legend Double Dagger 1.7 -4.7 62 31 45 16.1 101.04     LegendNANA
13:00 Legend Double Dagger 1.8 -3.5 68 30 43 16.1 101.07     LegendNANA
14:00 Legend Double Dagger 1.2 -3.4 71 31 37 16.1 101.12     LegendNANA
15:00 Legend Double Dagger 1.6 -3.6 68 30 45 16.1 101.11     LegendNANA
16:00 Legend Double Dagger 1.3 -3.2 72 30 39 16.1 101.16     LegendNANA
17:00 Legend Double Dagger 1.0 -3.3 73 30 37 16.1 101.14     LegendNANA
18:00 Legend Double Dagger 0.7 -2.8 78 30 35 16.1 101.12     LegendNANA
19:00 Legend Double Dagger 0.2 -3.0 79 28 26 16.1 101.11     LegendNANA
20:00 Legend Double Dagger 0.2 -2.4 83 27 22 16.1 101.10     LegendNANA
21:00 Legend Double Dagger 0.3 -2.1 84 26 24 16.1 101.06     LegendNANA
22:00 Legend Double Dagger 0.1 -2.0 86 24 15 16.1 101.02     LegendNANA
23:00 Legend Double Dagger -0.4 -2.2 88 26 22 16.1 100.98   -6 LegendNANA

Notes on Data Quality.

Legend

  • E = Estimated
  • M = Missing
  • NA = Not Available
  • ‡ = Partner data that is not subject to review by the National Climate Archives
Date modified: